YAOGAN-47

Last updated on Fri Dec 12 2025 00:02:09 GMT+0000 (Coordinated Universal Time)

1 66988U 25289A 25345.62394963 .00005809 00000+0 24920-3 0 9995 2 66988 97.5268 50.7421 0000858 73.6850 286.4480 15.23120362 372
UTC large
Height (km)
Speed (km/s)
/
Latitude / Longitude
Inclination (degrees)
Orbital Period (minutes)
Azimuth
Elevation
Range (km)
Doppler Factor

Next 0 passes for location: London (51.5072 / 0.1276)

Sorry there are no passes over London.